G4CVN Weather Reports


Display with metric or nautical units.
time (UTC)temp
F
wind
direction
speed
MPH
gust
MPH
rain 1hr
in
rain 24hr
in
rain mn
in
humidity
%
barometer
mb
20260901211056 61 0.0 0.0 0.00 0.00 0.00 83 1024.8
20260901210016 61 0.0 1.0 0.00 0.00 0.00 83 1024.7
20260901205016 61 0.0 1.0 0.00 0.00 0.00 82 1024.7
20260901204017 61 0.0 1.0 0.00 0.00 0.00 82 1024.8
20260901203016 61 0.0 2.0 0.00 0.00 0.00 81 1024.6
20260901202016 61 203 1.0 2.0 0.00 0.00 0.00 81 1024.7
20260901201016 61 0.0 2.0 0.00 0.00 0.00 80 1024.7
20260901200016 62 203 1.0 2.0 0.00 0.00 0.00 79 1024.7
20260901195056 62 0.0 0.0 0.00 0.00 0.00 78 1024.6
20260901194016 63 0.0 1.0 0.00 0.00 0.00 77 1024.4
20260901193016 63 203 1.0 2.0 0.00 0.00 0.00 76 1024.5
20260901192037 63 225 1.0 3.0 0.00 0.00 0.00 76 1024.6
20260901191018 63 225 1.0 2.0 0.00 0.00 0.00 76 1024.5
20260901190016 64 225 1.0 2.0 0.00 0.00 0.00 75 1024.5
20260901185016 64 0.0 2.0 0.00 0.00 0.00 74 1024.3
20260901184037 65 225 1.0 2.0 0.00 0.00 0.00 73 1024.3
20260901183017 65 225 1.0 3.0 0.00 0.00 0.00 72 1024.3
20260901182017 66 225 2.0 4.0 0.00 0.00 0.00 72 1024.4
20260901181036 66 203 2.0 4.0 0.00 0.00 0.00 70 1024.2
20260901180016 67 203 3.0 5.0 0.00 0.00 0.00 69 1024.2
20260901175038 67 248 2.0 5.0 0.00 0.00 0.00 69 1024.1
20260901174018 68 203 3.0 6.0 0.00 0.00 0.00 68 1024.1
20260901173016 68 203 2.0 5.0 0.00 0.00 0.00 68 1024.1
20260901172016 68 203 2.0 5.0 0.00 0.00 0.00 69 1024.0
20260901171036 68 203 3.0 6.0 0.00 0.00 0.00 68 1024.0
20260901170016 69 203 3.0 6.0 0.00 0.00 0.00 67 1024.0
20260901165057 69 203 3.0 8.0 0.00 0.00 0.00 66 1023.9
20260901164036 69 203 3.0 8.0 0.00 0.00 0.00 64 1023.9
20260901163016 69 203 3.0 7.0 0.00 0.00 0.00 64 1023.9
20260901162016 69 203 3.0 6.0 0.00 0.00 0.00 64 1023.9
20260901161017 70 203 3.0 7.0 0.00 0.00 0.00 62 1024.0
20260901160016 71 203 2.0 7.0 0.00 0.00 0.00 61 1024.0
20260901155016 72 225 3.0 5.0 0.00 0.00 0.00 57 1024.2
20260901154016 72 225 2.0 4.0 0.00 0.00 0.00 59 1024.0
20260901153016 71 203 2.0 6.0 0.00 0.00 0.00 61 1024.1
20260901152017 71 225 1.0 4.0 0.00 0.00 0.00 58 1024.3
20260901151016 73 225 3.0 7.0 0.00 0.00 0.00 57 1024.3
20260901150016 75 225 3.0 7.0 0.00 0.00 0.00 57 1024.3
20260901145016 75 203 3.0 6.0 0.00 0.00 0.00 54 1024.2
20260901144016 74 248 1.0 5.0 0.00 0.00 0.00 54 1024.2
20260901143036 74 225 3.0 5.0 0.00 0.00 0.00 57 1024.4
20260901142017 72 203 3.0 6.0 0.00 0.00 0.00 59 1024.4
20260901141016 73 203 3.0 5.0 0.00 0.00 0.00 56 1024.3
20260901140016 73 203 1.0 6.0 0.00 0.00 0.00 58 1024.4
20260901135016 73 203 1.0 3.0 0.00 0.00 0.00 55 1024.4
20260901134016 74 203 2.0 5.0 0.00 0.00 0.00 54 1024.5
20260901133016 73 225 2.0 5.0 0.00 0.00 0.00 55 1024.5
20260901132016 72 225 1.0 5.0 0.00 0.00 0.00 59 1024.6
20260901131016 72 225 2.0 4.0 0.00 0.00 0.00 55 1024.8
20260901130016 72 203 1.0 3.0 0.00 0.00 0.00 58 1024.8
20260901125016 72 203 2.0 5.0 0.00 0.00 0.00 55 1024.9
20260901124016 73 203 1.0 4.0 0.00 0.00 0.00 54 1024.9
20260901123017 73 203 1.0 3.0 0.00 0.00 0.00 57 1025.0
20260901122036 73 203 2.0 5.0 0.00 0.00 0.00 57 1024.9
20260901121016 72 225 1.0 4.0 0.00 0.00 0.00 57 1025.0
20260901120016 71 225 2.0 5.0 0.00 0.00 0.00 59 1025.1
20260901115016 71 225 2.0 5.0 0.00 0.00 0.00 59 1025.1
20260901114036 70 180 3.0 6.0 0.00 0.00 0.00 61 1025.0
20260901113016 70 158 1.0 4.0 0.00 0.00 0.00 64 1025.0
20260901112037 69 203 1.0 4.0 0.00 0.00 0.00 62 1025.1
20260901111037 69 203 3.0 6.0 0.00 0.00 0.00 62 1025.1
20260901110016 70 203 2.0 4.0 0.00 0.00 0.00 63 1025.1
20260901105016 69 225 2.0 5.0 0.00 0.00 0.00 66 1025.1
20260901104017 68 45 1.0 3.0 0.00 0.00 0.00 66 1025.2
20260901103017 68 135 1.0 4.0 0.00 0.00 0.00 65 1025.4
20260901102017 68 68 1.0 3.0 0.00 0.00 0.00 64 1025.4
20260901101016 68 203 1.0 6.0 0.00 0.00 0.00 64 1025.5
20260901100016 68 225 1.0 6.0 0.00 0.00 0.00 64 1025.6
20260901095016 67 203 2.0 5.0 0.00 0.00 0.00 66 1025.7
20260901094017 66 0 1.0 6.0 0.00 0.00 0.00 70 1025.8
20260901093017 65 225 1.0 2.0 0.00 0.00 0.00 73 1025.8
20260901092016 63 203 1.0 3.0 0.00 0.00 0.00 81 1025.7
20260901091016 62 0.0 2.0 0.00 0.00 0.00 82 1025.8
20260901090017 61 203 1.0 3.0 0.00 0.00 0.00 83 1025.7
20260901085017 60 0.0 0.0 0.00 0.00 0.00 87 1025.7
20260901084036 59 0.0 0.0 0.00 0.00 0.00 90 1025.6
20260901083016 59 0.0 0.0 0.00 0.00 0.00 92 1025.5
20260901082016 58 0.0 0.0 0.00 0.00 0.00 94 1025.5
20260901081016 57 0.0 0.0 0.00 0.00 0.00 95 1025.4
20260901080016 57 0.0 0.0 0.00 0.00 0.00 95 1025.3
20260901075017 56 0.0 0.0 0.00 0.00 0.00 95 1025.3
20260901074017 56 0.0 0.0 0.00 0.00 0.00 95 1025.2
20260901073016 55 0.0 0.0 0.00 0.00 0.00 95 1025.1
20260901072036 55 0.0 0.0 0.00 0.00 0.00 96 1025.1
20260901071016 54 0.0 0.0 0.00 0.00 0.00 96 1025.2
20260901070016 54 0.0 0.0 0.00 0.00 0.00 96 1025.2
20260901065016 53 0.0 0.0 0.00 0.00 0.00 95 1025.1
20260901064016 52 0.0 0.0 0.00 0.00 0.00 95 1025.1
20260901063037 52 0.0 0.0 0.00 0.00 0.00 95 1024.9
20260901062016 51 0.0 0.0 0.00 0.00 0.00 95 1024.8
20260901061016 51 0.0 0.0 0.00 0.00 0.00 94 1024.7
20260901060017 50 0.0 0.0 0.00 0.00 0.00 94 1024.7
20260901055016 50 0.0 0.0 0.00 0.00 0.00 94 1024.6
20260901054019 50 0.0 0.0 0.00 0.00 0.00 93 1024.6
20260901053037 49 0.0 0.0 0.00 0.01 0.00 93 1024.5
20260901052016 49 0.0 0.0 0.00 0.01 0.00 93 1024.4
20260901051056 49 0.0 0.0 0.00 0.01 0.00 92 1024.4
20260901050017 49 0.0 0.0 0.00 0.01 0.00 92 1024.4
20260901045017 49 0.0 0.0 0.00 0.01 0.00 92 1024.2
20260901044016 50 0.0 0.0 0.00 0.01 0.00 92 1024.1
20260901043016 50 0.0 0.0 0.00 0.01 0.00 92 1024.1
20260901042018 50 0.0 0.0 0.00 0.01 0.00 92 1024.2
20260901041016 50 0.0 0.0 0.00 0.01 0.00 91 1024.1
20260901040016 51 0.0 0.0 0.00 0.01 0.00 91 1024.0
20260901035037 51 0.0 0.0 0.00 0.01 0.00 91 1024.0
20260901034018 51 0.0 0.0 0.00 0.01 0.00 91 1023.9
20260901033016 51 0.0 0.0 0.00 0.01 0.00 91 1023.9
20260901032016 52 0.0 0.0 0.00 0.01 0.00 91 1023.9
20260901031017 52 0.0 0.0 0.00 0.01 0.00 91 1023.9
20260901030016 52 0.0 0.0 0.00 0.01 0.00 90 1023.9
20260901025016 53 0.0 0.0 0.00 0.01 0.00 90 1023.9
20260901024016 53 0.0 0.0 0.00 0.01 0.00 90 1024.0
20260901023037 54 0.0 0.0 0.00 0.01 0.00 90 1024.0
20260901022017 54 0.0 0.0 0.00 0.01 0.00 90 1024.0
20260901021016 54 0.0 0.0 0.00 0.01 0.00 90 1024.0
20260901020017 55 0.0 0.0 0.00 0.01 0.00 89 1024.0
20260901015016 55 0.0 0.0 0.00 0.01 0.00 89 1023.9
20260901014016 55 0.0 0.0 0.00 0.02 0.00 89 1023.9
20260901013017 56 0.0 0.0 0.00 0.02 0.00 89 1023.9
20260901012016 56 0.0 0.0 0.00 0.02 0.00 88 1023.8
20260901011016 56 0.0 0.0 0.00 0.02 0.00 88 1023.7
20260901010017 56 0.0 0.0 0.00 0.02 0.00 87 1023.6
20260901005018 57 0.0 0.0 0.00 0.02 0.00 87 1023.5
20260901004016 57 0.0 0.0 0.00 0.03 0.00 86 1023.6
20260901003016 57 0.0 0.0 0.00 0.03 0.00 85 1023.6
20260901002016 58 0.0 0.0 0.00 0.03 0.00 85 1023.5
20260901001016 58 0.0 0.0 0.00 0.03 0.00 84 1023.5
20260901000037 58 0.0 0.0 0.00 0.04 0.00 84 1023.5
20260831235017 59 0.0 0.0 0.00 0.04 0.00 84 1023.5
20260831234017 59 0.0 1.0 0.00 0.09 0.00 83 1023.4
20260831233016 59 0.0 1.0 0.00 0.09 0.00 83 1023.3
20260831232016 60 0.0 1.0 0.00 0.09 0.00 83 1023.3
20260831231018 60 0.0 1.0 0.00 0.09 0.00 82 1023.3
20260831230017 60 0.0 1.0 0.00 0.09 0.00 82 1023.2
20260831225017 60 0.0 1.0 0.00 0.09 0.09 81 1023.2
20260831224019 60 0.0 1.0 0.00 0.09 0.09 81 1023.1
20260831223038 61 0.0 2.0 0.00 0.09 0.09 80 1023.2
20260831222017 61 0.0 1.0 0.00 0.09 0.09 79 1023.1
20260831221036 61 0.0 1.0 0.00 0.09 0.09 79 1023.1
20260831220057 61 0.0 1.0 0.00 0.09 0.09 78 1023.1
20260831215018 61 0.0 1.0 0.00 0.09 0.09 77 1023.0
20260831214018 61 225 1.0 3.0 0.00 0.09 0.09 77 1022.9
20260831213017 61 203 1.0 2.0 0.00 0.09 0.09 76 1022.8
20260831212017 62 0.0 2.0 0.00 0.09 0.09 75 1022.7